map of LAD home
Great Circle Mapper logo
LAD - Airport
Location
City:  Luanda, Angola
Name:Aeroporto 4 de Fevereiro
ICAO / IATA:FNLU / LAD

Details
Type:Airport (Aerodrome, Airfield)
Use:Public/Civil, Military, International (customs port of entry)
Latitude:851'30"S (-8.858374)
Longitude:1313'52"E (13.231178)
Datum:other
Elevation:243 ft (74 m)
Runways:2
Longest:12190 × 148 ft (3716 × 45 m), paved

Time
Time Zone:UTC+1
Local Time:

Weather
METAR:FNLU 200700Z VRB03KT 9999 FEW019 BKN023 23/18 Q1016 NOSIG
TAF:FNLU 200500Z 2006/2112 19005KT 9999 BKN023
TEMPO 2006/2010 VRB03KT 5000 BR SCT018 BKN025
BECMG 2010/2012 28010KT SCT023 PROB30
TEMPO 2016/2020 CAVOK
BECMG 2018/2020 21005KT
BECMG 2100/2102 16005KT BKN023
TEMPO 2106/2110 VRB03KT 5000 BR SCT018 BKN025

Related Locations
Nearby:
Farthest:PLPA: 12062 mi / 19412 km
Palmyra Island Atoll [Palmyra Airport (Cooper)], UM

Find:

   beyond  
but within

Other Information
Maps:
NOTAMs:
Links:
Sources:

  
flag of Angola   

Sectional Chart

Flight Planning
at skyvector.com

Satellite Image

Google Maps Satellite View

 

Copyright © 2004-2014 Karl L. Swartz. All rights reserved.
The Great Circle Mapper name and logo are trademarks of the Great Circle Mapper.
All other trademarks mentioned herein belong to their respective owners.
Please see credits for attibutions and further copyright information.

  Follow gcmap on Facebook Follow gcmap on Twitter

hCard Microformat

Geo Microformat